User: anonymous   Login
Location: Betra
(48.4113°N, 8.6634°E)
Time: 23:58:08
(UTC+00:00)
Language:

Cosmos 2219 Rocket - Orbit

View from above orbital plane
View from above orbital plane
View from above satellite
View from above satellite

Ground track
Ground track

The orbit data is extracted from the following two-line orbital elements,

1 22220U 92076B   24194.62506176  .00000052  00000-0  50016-4 0  9998
2 22220  71.0009  22.7776 0014871 293.5974 128.4432 14.16672717636133
Epoch (UTC): 12 July 2024 15:00:05
Eccentricity: 0.0014871
inclination: 71.0009°
perigee height: 826 km
apogee height: 847 km
right ascension of ascending node: 22.7776°
argument of perigee: 293.5974°
revolutions per day: 14.16672717
mean anomaly at epoch: 128.4432°
orbit number at epoch: 63613

The dashed part of the orbit path shows where the satellite is in the earth's shadow,  

DLR